Regional Weather Roundup
Issued by NWS

Home | Current Version | Previous Version | Graphics & Text | Print | Product List | Glossary On
Versions: 1 2 3 4 5 6 7 8 9 10 11 12 13 14 15 16 17 18 19 20 21 22 23 24 25 26 27 28 29 30 31 32 33 34 35 36 37 38 39 40 41 42 43 44 45 46 47 48 49 50
000
ASUS43 KBIS 231510
RWRND

NORTH DAKOTA REGIONAL WEATHER ROUNDUP
NATIONAL WEATHER SERVICE BISMARCK ND
1000 AM CDT SUN JUL 23 2017

NOTE: "FAIR" INDICATES FEW OR NO CLOUDS BELOW 12,000 FEET WITH NO
SIGNIFICANT WEATHER AND/OR OBSTRUCTIONS TO VISIBILITY.


NDZ001>003-009>011-017-231600-
NORTHWEST NORTH DAKOTA

CITY           SKY/WX    TMP DP  RH WIND       PRES   REMARKS
WILLISTON      SUNNY     73  56  54 S5        30.06F
MINOT          SUNNY     70  55  59 S6        30.07S
MINOT AFB      SUNNY     69  56  63 CALM      30.05F
$$

NDZ018>021-031>035-040>046-231600-
SOUTHWEST NORTH DAKOTA

CITY           SKY/WX    TMP DP  RH WIND       PRES   REMARKS
BISMARCK       SUNNY     70  57  63 CALM      30.09S
DICKINSON      SUNNY     74  54  49 S8        30.08S
GARRISON         N/A     69  55  60 S3        30.07F
HETTINGER ARPT SUNNY     74  51  44 SE6       30.11F
$$

NDZ004>008-012>016-024-026-027-054-231600-
NORTHEAST NORTH DAKOTA

CITY           SKY/WX    TMP DP  RH WIND       PRES   REMARKS
GRAND FORKS    CLOUDY    65  61  87 N8        30.01R
GRND FRKS AFB  CLOUDY    65  60  82 E7        30.02R
DEVILS LAKE    SUNNY     67  57  70 NW6       30.06S
$$

NDZ022-023-025-028>030-036>039-047>053-231600-
SOUTHEAST NORTH DAKOTA

CITY           SKY/WX    TMP DP  RH WIND       PRES   REMARKS
FARGO          CLOUDY    67  59  75 N12       29.99S
JAMESTOWN      SUNNY     69  59  70 N12       30.05R
$$





USA.gov is the U.S. government's official web portal to all federal, state and local government web resources and services.